Hourly Data Report for September 08, 2017

All times are specified in Local Standard Time (LST). Add 1 hour to adjust for Daylight Saving Time where and when it is observed.

POINT LEPREAU CS
NEW BRUNSWICK

45°04'23.040" N
66°26'57.090" W
6.00 m
8104201
71699
WPE

Download Data

Hourly Data (September 2017)
Hourly Data Report for September 8, 2017
Temp Definition
°C
Dew Point Temp Definition
°C
Rel Hum Definition
%
Wind Dir Definition
10's deg

Wind Spd Definition
km/h
Visibility Definition
km
Stn Press Definition
kPa
Hmdx Definition


Wind Chill Definition


Weather Definition


TIME
00:00 13.4 LegendMM 100 21 10   100.98     LegendNANA
01:00 13.3 LegendMM 100 26 5   100.99     LegendNANA
02:00 13.0 LegendMM 100 22 9   101.02     LegendNANA
03:00 13.0 LegendMM 100 25 3   101.03     LegendNANA
04:00 12.5 LegendMM 100 22 5   101.00     LegendNANA
05:00 12.3 LegendMM 100 25 5   101.06     LegendNANA
06:00 12.4 LegendMM 100 23 5   101.16     LegendNANA
07:00 13.1 LegendMM 100 25 5   101.28     LegendNANA
08:00 13.1 LegendMM 100 26 4   101.35     LegendNANA
09:00 13.4 LegendMM 100 21 6   101.42     LegendNANA
10:00 15.1 LegendMM 100 17 7   101.47     LegendNANA
11:00 15.4 15.2 99 16 11   101.50     LegendNANA
12:00 19.0 15.9 82 19 12   101.49     LegendNANA
13:00 17.0 15.0 88 18 16   101.52     LegendNANA
14:00 16.4 14.8 90 19 15   101.54     LegendNANA
15:00 16.4 14.7 90 18 15   101.57     LegendNANA
16:00 16.2 14.3 89 18 13   101.57     LegendNANA
17:00 16.2 14.4 90 24 8   101.63     LegendNANA
18:00 15.0 13.4 90 22 6   101.62     LegendNANA
19:00 13.4 12.4 94 25 6   101.65     LegendNANA
20:00 13.5 12.5 94 25 11   101.72     LegendNANA
21:00 12.6 12.3 98 30 5   101.72     LegendNANA
22:00 12.0 11.6 98 20 6   101.75     LegendNANA
23:00 9.9 9.9 100 1 2   101.77     LegendNANA

Notes on Data Quality.

Legend

  • E = Estimated
  • M = Missing
  • NA = Not Available
  • ‡ = Partner data that is not subject to review by the National Climate Archives
Date modified: